Location: *
(33.8649°S, 62.1526°E)
Time: 16:41:49
(UTC+00:00)

Cosmos 1825 - Pass Details

Date: 17 January 2021
Orbit: 501 x 507 km, 82.5° (Epoch: 03 March)

Event Time Altitude Azimuth Distance (km) Brightness Sun altitude
Rises 15:42:43 0° 176° (S) 2,633 6.2 -7.8°
Reaches altitude 10° 15:45:01 10° 166° (SSE) 1,739 5.1 -8.2°
Maximum altitude 15:48:29 33° 101° (E) 882 3.0 -8.8°
Enters shadow 15:51:44 11° 36° (NE) 1,651 4.2 -9.4°
